This is the latest recevied weather packets stored in our database for station/object VK4TOM-13. If no packets are shown the sender has not sent any weather packets the latest 10 day(s).
| Time | Temp. | Humidity | Pressure | Rain* | Wind** | Luminosity | Snow |
|---|---|---|---|---|---|---|---|
| 1788140639 | 26.67° C | 70% | 1026.3 hPa | 0 mm | - | - | - |
| 1788140160 | 27.22° C | 70% | 1026.4 hPa | 0 mm | - | - | - |
| 1788139754 | 27.22° C | 70% | 1026.4 hPa | 0 mm | - | - | - |
| 1788139212 | 27.22° C | 70% | 1026.5 hPa | 0 mm | - | - | - |
| 1788137951 | 27.22° C | 70% | 1026.7 hPa | 0 mm | - | - | - |
| 1788136126 | 26.11° C | 70% | 1027.1 hPa | 0 mm | - | - | - |
| 1788133121 | 22.78° C | 70% | 1027.6 hPa | 0 mm | - | - | - |
| 1788131919 | 22.22° C | 70% | 1027.9 hPa | 0 mm | - | - | - |
| 1788131318 | 21.67° C | 70% | 1027.9 hPa | 0 mm | - | - | - |
| 1788130717 | 20.56° C | 70% | 1027.9 hPa | 0 mm | - | - | - |
| 1788130116 | 19.44° C | 70% | 1028 hPa | 0 mm | - | - | - |
| 1788129515 | 18.89° C | 70% | 1028 hPa | 0 mm | - | - | - |
| 1788128913 | 18.89° C | 70% | 1028 hPa | 0 mm | - | - | - |
| 1788128312 | 18.33° C | 70% | 1027.9 hPa | 0 mm | - | - | - |
| 1788127711 | 18.33° C | 70% | 1027.9 hPa | 0 mm | - | - | - |
| 1788127110 | 18.33° C | 70% | 1027.9 hPa | 0 mm | - | - | - |
| 1788126514 | 17.78° C | 70% | 1027.7 hPa | 0 mm | - | - | - |
| 1788125908 | 17.78° C | 70% | 1027.7 hPa | 0 mm | - | - | - |
| 1788125307 | 17.22° C | 70% | 1027.5 hPa | 0 mm | - | - | - |
| 1788124706 | 17.22° C | 70% | 1027.5 hPa | 0 mm | - | - | - |
| 1788124105 | 17.22° C | 70% | 1027.4 hPa | 0 mm | - | - | - |
| 1788123504 | 16.67° C | 70% | 1027.2 hPa | 0 mm | - | - | - |
| 1788122903 | 16.67° C | 70% | 1027.3 hPa | 0 mm | - | - | - |
| 1788122302 | 16.67° C | 70% | 1027.1 hPa | 0 mm | - | - | - |
| 1788121700 | 16.67° C | 70% | 1027 hPa | 0 mm | - | - | - |
* Rain since midnight (hover to see other rain measurements)
** Current wind speed in m/s (hover to see current wind gust speed)